Location: Sungai Bunut
(2.6333°N, 113.7333°E)
Time: 15:10:48
(UTC+00:00)

Altair - Pass Details

Date: 05 December 2023
Orbit: 1501 x 1682 km, 47.2° (Epoch: 24 February)

Event Time Altitude Azimuth Distance (km) Brightness Sun altitude
Rises 09:41:24 0° 314° (NW) 4,622 10.3 6.9°
Reaches altitude 10° 09:44:25 10° 312° (NW) 3,646 9.9 6.2°
Maximum altitude 09:53:28 67° 231° (SW) 1,629 8.1 4.1°
Drops below altitude 10° 10:02:49 10° 149° (SSE) 3,746 9.5 1.9°
Sets 10:05:59 0° 147° (SSE) 4,755 10.0 1.2°
